< < Back
Terminal Aerodrome Forecast


Current Version              Previous Versions:   1  2  3  4  5  6  7  8  9  

Terminal Aerodrome Forecast

828
FTUS42 KTAE 042203 AAB
TAFABY
TAF AMD
KABY 042203Z 0422/0518 22006KT P6SM SCT040
      TEMPO 0422/0423 18010G20KT
     FM050000 20003KT P6SM SCT250
     FM051400 23009KT P6SM SCT030=



Latest METAR

771
SAUS70 KWBC 051000 RRH
MTRABY
METAR KABY 050953Z AUTO 00000KT 5SM BR CLR 24/23 A3005 RMK AO2 SLP174
T02390228


USA.gov is the U.S. government's official web portal to all federal, state and local government web resources and services.